Temp
10 10 10 10 10 10 10 10 10 10 10 10 11 13 17 16 16 15 14 24 25 24 24 22 23 23 23 23 25 24 23 24 22 23 23 24 25 25 25 25 25 25 23 22 20
10 10 10 10 10 10 10 10 10 10 10 10 11 11 14 16 14 13 25 24 24 24 23 22 21 23 22 24 25 24 23 25 24 24 23 24 26 25 25 24 23 22 22 21 20
10 10 10 10 10 10 10 10 10 10 10 10 10 12 13 15 13 20 25 25 24 23 24 24 24 24 24 25 25 23 23 24 23 23 25 24 25 27 24 23 23 21 21 21 20
10 10 9 10 9 10 10 10 10 10 10 9 11 11 15 14 24 24 24 24 23 23 24 24 23 23 22 24 24 24 24 24 23 24 25 25 24 26 24 25 23 23 22 22 21
10 9 9 9 9 9 9 9 9 9 9 9 10 12 13 15 17 24 25 24 22 23 24 23 23 23 24 25 24 25 24 24 25 26 25 26 25 23 21 25 24 23 23 22 22
10 10 9 9 9 9 9 9 9 9 8 9 10 11 13 19 23 23 24 23 23 23 23 23 23 24 23 26 25 26 26 26 25 24 25 24 24 24 21 23 24 23 23 22 22
10 9 9 10 11 9 9 9 9 9 9 9 10 11 13 18 22 22 22 22 23 23 21 24 25 25 23 25 26 26 24 26 24 24 25 25 24 23 21 23 24 23 23 23 23
13 12 14 15 16 15 13 13 13 10 10 10 11 12 15 22 22 21 23 23 22 24 24 25 26 24 25 25 26 25 26 24 24 24 24 25 24 23 21 21 24 24 24 24 23
16 16 18 18 18 18 18 16 15 13 10 10 12 13 17 22 22 22 23 23 22 23 25 25 25 24 25 25 23 24 24 25 25 24 25 25 22 23 22 22 24 24 24 24 23
17 17 17 18 18 18 18 16 15 13 11 12 12 14 20 24 24 24 23 24 22 22 24 24 21 21 20 21 23 25 25 26 26 24 25 24 24 24 24 25 25 25 24 24 23
17 18 18 18 15 18 16 15 14 14 14 18 20 20 22 24 25 23 23 24 22 22 21 23 21 21 23 24 24 26 26 24 23 23 23 22 24 23 24 26 24 25 24 23 24
16 17 18 17 16 14 16 15 20 21 17 16 17 18 20 23 24 23 24 23 23 21 22 21 21 23 24 24 25 24 24 23 23 23 23 23 23 24 23 23 23 24 25 24 25
16 16 18 17 16 15 16 19 20 19 17 20 18 19 22 22 23 23 23 23 23 22 23 21 24 24 25 25 25 25 25 22 24 23 22 23 23 23 24 25 24 24 25 25 24
17 17 18 19 15 17 17 21 19 18 16 22 23 24 23 24 25 25 25 25 24 22 22 24 25 25 25 25 24 25 25 26 23 23 22 23 23 22 24 23 24 25 24 24 24
18 18 19 19 18 16 21 21 20 19 19 23 24 25 23 24 25 25 26 26 24 24 23 24 24 25 25 25 25 26 27 25 24 22 22 23 23 22 22 22 22 22 24 25 24
18 18 19 17 16 22 21 21 20 18 21 22 22 22 24 25 26 25 26 25 25 25 24 24 26 25 25 26 26 26 24 21 21 21 22 23 23 22 21 23 23 23 24 25 25
18 19 18 17 19 21 21 19 18 18 20 21 21 20 21 22 24 25 24 24 23 22 22 24 25 26 26 26 26 26 22 20 21 21 22 21 23 23 22 23 24 24 25 25 25
19 20 19 21 20 20 20 19 18 20 19 20 20 21 21 20 21 21 23 22 23 22 19 21 23 24 25 25 24 22 22 21 23 21 22 22 23 24 22 22 24 26 25 24 24
19 18 19 21 22 20 17 16 18 19 20 20 20 20 19 20 21 20 20 21 22 22 21 20 22 25 25 25 26 25 23 23 21 22 22 21 22 22 22 23 23 22 23 23 23
17 17 19 21 22 20 17 18 18 18 20 21 21 20 20 18 20 20 21 22 23 23 21 22 22 24 26 26 26 24 23 24 20 22 23 21 21 22 22 22 21 21 20 21 22
17 17 20 20 20 16 16 16 18 19 20 21 21 20 19 19 19 19 20 23 22 22 20 21 20 23 24 25 24 24 24 20 20 20 21 21 21 21 21 21 21 20 20 20 20
14 19 19 19 18 10 16 17 19 21 20 21 22 21 20 20 20 20 21 21 21 21 22 21 17 21 24 24 23 25 24 21 21 22 19 20 20 21 21 21 20 20 19 19 19
13 14 20 20 18 16 16 20 20 21 21 22 23 22 21 20 21 20 21 22 21 22 23 21 18 20 22 22 23 23 24 21 19 18 20 22 20 20 20 20 20 19 19 18 18
13 18 16 14 13 18 19 21 22 21 21 19 21 22 21 19 19 20 20 22 23 22 21 19 17 20 20 21 20 23 23 23 21 21 19 20 21 21 20 20 19 19 19 18 18
12 16 15 18 17 17 18 20 21 20 19 18 20 20 21 20 20 19 19 19 22 21 20 18 20 21 22 21 22 22 21 22 24 22 24 21 20 21 20 20 19 19 18 18 17
15 16 13 13 15 19 15 19 20 19 19 19 19 19 19 19 19 20 19 19 20 20 19 16 19 20 22 22 22 22 21 20 22 21 20 20 20 19 20 19 19 19 18 18 17
15 15 14 14 15 17 17 20 20 20 20 19 19 19 19 20 20 20 19 17 18 18 19 17 16 17 21 19 22 20 20 19 20 21 20 20 20 19 18 19 19 19 18 18 17
Height
793 792 790 788 787 785 784 783 781 780 779 778 776 774 773 772 771 770 768 759 760 764 768 771 776 778 779 782 781 781 797 802 807 801 801 790 790 788 788 796 795 797 805 813 820
792 790 788 786 785 783 783 781 780 778 777 776 775 773 772 771 769 764 754 755 758 762 766 770 776 778 783 783 782 789 798 791 791 788 794 790 787 792 797 803 807 807 814 820 822
790 788 786 785 783 781 780 779 778 777 776 774 773 772 771 770 770 752 748 752 756 760 764 769 773 776 782 779 782 789 795 788 789 790 788 792 795 789 801 812 804 809 816 822 826
789 786 784 782 780 779 778 776 776 775 774 773 771 770 771 771 769 749 749 751 756 761 764 768 773 781 789 788 779 791 783 786 784 785 788 794 795 798 801 804 803 807 813 821 826
787 784 782 780 778 777 775 774 773 773 772 771 771 770 771 773 762 749 749 753 756 760 763 767 774 779 787 780 781 785 784 782 775 779 785 787 798 803 810 804 808 811 817 822 827
785 782 780 778 777 775 773 771 770 770 769 770 770 771 772 772 752 750 747 752 755 760 764 766 771 771 779 778 782 773 780 780 779 784 786 797 802 802 813 809 812 813 819 822 827
784 781 779 776 774 774 773 770 769 768 769 768 769 771 771 759 751 750 750 753 758 761 764 766 768 770 776 780 773 775 790 783 785 785 789 790 810 807 810 811 814 816 819 824 827
781 778 775 774 772 771 771 770 768 766 766 768 768 771 766 751 751 751 754 757 761 764 765 766 768 770 774 772 776 786 785 802 790 787 791 794 817 809 810 813 815 817 821 824 826
781 777 775 773 770 768 767 768 767 766 767 769 771 771 762 750 751 752 755 757 762 765 766 766 769 774 775 787 801 794 808 801 798 791 795 798 817 807 810 814 815 817 820 823 828
781 777 774 772 769 768 767 767 766 767 769 771 773 773 753 749 747 750 755 758 763 766 769 771 779 789 794 801 821 805 801 793 799 798 796 805 808 805 807 810 812 815 819 823 827
780 777 774 771 769 767 764 766 773 771 769 760 757 755 749 746 747 749 753 757 762 769 783 776 792 799 791 787 787 786 791 800 804 800 804 810 807 808 806 806 813 815 819 824 824
779 776 774 771 768 766 766 763 761 765 766 751 753 754 748 747 750 749 753 761 767 782 778 788 797 783 778 781 786 793 797 809 808 805 806 810 812 808 809 811 811 815 817 820 821
778 774 773 770 767 766 766 762 761 762 769 753 749 748 742 745 748 751 750 757 767 777 779 790 780 775 778 786 790 796 797 807 805 808 810 815 822 817 812 810 813 813 814 814 819
777 772 768 766 768 764 762 761 758 759 781 759 748 741 741 740 747 741 745 753 762 778 778 779 771 777 781 787 788 803 786 787 805 814 831 814 838 823 814 818 814 812 813 817 815
774 770 765 764 762 761 760 759 756 759 798 756 748 737 739 745 744 747 743 748 766 768 774 783 778 780 785 783 782 786 775 788 800 816 819 823 830 821 815 821 818 810 810 811 812
770 766 762 760 760 756 757 756 757 784 788 766 753 754 749 745 744 745 747 746 752 764 770 772 762 768 774 771 773 773 786 804 813 822 835 818 820 825 820 802 807 806 808 807 809
766 760 758 759 756 754 755 756 786 798 772 773 768 764 764 762 755 753 759 767 778 791 791 777 773 763 762 777 774 777 799 842 844 847 839 818 822 813 805 795 793 796 797 800 804
759 754 752 753 754 755 755 770 796 782 782 770 768 766 772 769 768 767 768 780 770 779 799 800 798 772 761 772 784 791 794 822 838 847 832 816 823 805 796 791 785 786 794 797 801
754 751 751 752 751 755 763 796 793 785 776 776 770 778 780 774 770 775 780 781 775 775 794 801 791 760 758 757 762 781 796 779 812 817 827 826 812 799 789 789 788 793 795 799 799
754 752 753 753 753 755 775 790 784 778 773 772 782 780 784 784 779 779 780 773 774 769 774 782 796 767 756 751 757 768 769 798 812 830 830 830 825 814 801 799 798 800 802 803 802
755 757 756 756 756 766 791 791 779 771 771 774 777 780 784 783 784 785 784 774 770 772 775 778 789 780 763 767 773 774 781 793 800 810 830 840 824 797 798 795 800 802 802 804 804
756 768 759 760 774 795 789 784 774 770 768 769 769 773 779 780 783 783 780 776 768 769 776 777 795 796 776 759 761 760 768 779 803 812 820 818 821 791 792 793 799 805 806 806 806
766 768 761 760 784 789 785 775 773 772 773 770 770 768 772 779 784 780 776 765 768 767 772 774 798 804 787 778 767 773 767 775 788 798 812 813 818 794 797 799 801 804 805 807 807
767 775 768 767 778 779 781 777 776 769 774 774 772 769 775 783 782 781 778 766 766 767 764 770 797 795 805 794 789 782 776 769 781 798 811 808 802 797 798 800 801 804 806 809 812
771 779 777 782 780 780 779 779 779 784 777 777 775 777 776 787 784 787 782 778 767 769 771 778 791 786 782 782 779 781 785 776 773 779 783 792 794 787 789 795 798 802 808 811 814
776 779 780 785 783 777 787 786 783 785 784 783 783 783 778 785 788 788 787 785 781 775 779 785 794 787 785 778 777 784 781 781 775 780 781 786 791 783 788 793 798 800 805 809 813
776 775 778 787 786 787 789 783 782 783 782 783 782 782 784 780 777 778 779 783 782 785 782 791 800 804 796 792 779 802 793 792 787 776 782 788 779 779 792 797 798 801 806 811 814
Wind_Speed
13 13 13 13 13 12 11 12 12 11 11 11 11 10 11 12 12 7 7 10 18 15 15 16 10 6 6 2 3 3 2 1 2 13 6 4 4 2 5 6 4 1 11 15 25
15 14 13 13 13 13 13 11 11 11 11 11 11 10 9 12 12 12 17 13 12 18 19 19 6 8 2 3 3 2 1 2 6 4 7 2 5 5 6 8 14 18 19 24 24
15 15 14 14 13 12 12 13 12 12 11 10 10 8 8 8 4 7 6 19 20 22 20 18 16 5 3 3 4 3 2 3 4 5 14 11 3 2 12 7 16 23 19 19 20
16 15 14 13 13 12 12 12 13 12 11 10 8 6 4 2 2 2 6 22 25 20 19 14 6 5 5 3 3 2 3 5 8 10 8 12 8 11 6 2 15 19 20 19 15
16 15 15 14 13 12 11 11 11 11 10 9 8 4 1 1 8 6 6 22 26 20 13 6 6 5 5 4 4 2 4 4 4 14 7 10 13 12 1 9 14 19 18 15 14
16 16 15 14 14 12 10 10 9 9 8 7 5 1 1 2 6 9 7 30 26 19 10 6 7 5 3 2 3 3 4 3 5 7 11 11 12 11 9 3 14 17 15 14 15
17 16 15 13 12 12 12 11 11 8 8 4 1 1 1 10 5 2 21 24 24 12 6 6 3 2 4 2 3 4 6 1 7 7 6 9 10 9 11 6 15 16 14 13 14
17 15 12 11 10 10 10 10 7 5 3 1 6 2 6 2 2 10 13 13 17 9 5 13 4 4 2 4 2 5 4 3 3 4 8 10 4 16 19 13 17 15 13 13 11
17 15 12 10 9 7 7 7 5 2 2 4 3 2 8 5 4 12 12 9 11 8 4 2 1 2 1 3 4 4 3 2 2 2 2 3 5 16 18 14 15 14 13 13 8
18 16 14 12 10 8 6 1 4 7 5 3 3 2 6 1 5 11 12 14 5 4 3 3 3 3 3 4 4 4 2 3 5 1 6 5 3 15 12 16 17 14 13 10 12
21 18 16 15 14 11 1 6 3 1 4 7 4 3 4 6 3 6 14 8 5 4 4 2 4 7 6 6 5 4 4 6 4 6 6 5 7 17 8 15 10 12 12 12 14
22 20 18 17 18 13 2 3 3 0 6 9 6 6 11 4 1 5 19 5 6 4 4 5 6 6 7 7 7 1 7 5 9 7 3 7 4 13 7 13 17 7 13 15 13
22 22 20 20 17 1 3 5 2 7 1 6 5 4 3 9 5 6 8 3 6 6 4 6 3 7 5 5 7 3 4 5 6 8 3 1 4 10 6 9 17 6 6 13 15
23 24 24 17 4 4 6 1 13 5 4 5 3 2 4 4 1 6 13 6 2 7 8 3 2 7 3 4 6 5 10 9 17 7 4 7 4 8 14 7 6 14 10 11 16
24 28 26 16 10 3 1 12 2 4 4 11 4 1 1 5 5 2 7 4 5 5 6 5 5 5 3 4 6 4 6 9 10 3 4 3 2 2 11 13 14 22 11 13 15
26 30 22 9 6 8 5 10 4 5 3 6 5 6 2 2 2 3 3 5 3 4 4 4 1 5 7 4 8 7 9 10 4 3 1 7 4 4 9 20 15 17 19 12 15
34 25 19 8 3 1 12 2 4 4 4 6 4 5 3 5 4 3 6 3 4 4 2 4 3 3 4 4 1 2 5 3 3 0 5 2 4 5 3 6 19 20 21 15 16
33 20 8 9 2 4 3 5 6 2 3 4 3 3 4 6 4 6 3 3 5 4 3 5 3 7 4 8 7 8 8 6 5 5 2 3 4 4 3 7 9 13 13 12 14
26 6 5 6 7 2 5 5 4 4 3 6 4 6 6 4 4 4 4 2 2 2 5 3 5 4 5 4 9 5 3 6 7 3 4 2 3 4 5 5 9 9 11 8 13
11 5 6 3 12 4 5 1 2 3 2 1 3 3 4 6 3 4 3 1 3 1 3 4 2 3 4 3 2 6 6 3 3 5 3 2 3 3 2 7 8 9 9 6 6
4 3 8 10 4 5 3 4 4 5 3 1 1 3 2 3 2 3 1 1 1 1 5 3 3 6 1 2 7 2 1 5 5 4 6 4 5 3 6 10 8 8 7 6 5
2 3 4 2 4 1 2 4 2 3 2 3 1 2 1 2 3 1 3 3 1 1 3 1 4 3 7 2 2 2 5 6 5 4 1 3 4 1 8 10 11 6 6 5 5
3 1 2 1 3 2 4 1 1 5 4 4 3 1 1 2 3 1 2 2 3 1 3 4 2 2 7 6 5 4 2 4 5 4 5 6 4 6 8 10 8 10 8 6 7
3 2 4 4 1 6 2 1 3 4 3 3 2 3 3 4 4 1 4 2 3 4 5 5 3 4 5 5 3 4 5 2 4 4 6 4 9 11 13 13 11 10 9 6 4
3 1 3 1 4 3 2 2 3 5 4 7 5 6 3 4 2 5 4 6 2 6 3 3 4 2 2 4 3 3 5 5 3 5 6 8 10 17 17 13 11 11 10 9 7
2 2 3 1 2 3 5 4 2 2 5 6 4 4 3 5 2 2 4 5 2 5 3 4 1 1 2 3 7 3 14 10 3 2 4 8 2 8 11 9 12 13 12 12 11
4 2 3 4 3 3 1 2 1 1 1 2 3 3 6 4 2 2 2 3 1 3 2 4 2 3 2 6 5 6 9 5 5 1 4 6 7 12 15 14 14 13 12 12 12
Wind_Direction
332 329 327 324 321 319 319 320 321 322 323 320 320 313 313 313 310 282 241 222 210 178 164 146 153 136 147 134 226 136 310 45 172 152 180 294 123 33 76 126 59 85 126 129 133
332 330 326 322 319 317 315 314 313 314 316 316 316 318 318 316 316 253 245 216 189 184 167 147 151 148 126 180 205 167 129 137 152 134 148 180 100 111 119 97 100 94 103 126 135
328 326 323 319 316 313 311 310 309 310 311 311 312 315 322 331 315 248 320 198 175 175 174 160 157 161 118 184 178 178 222 54 115 237 182 130 142 42 126 115 142 134 138 142 145
329 325 321 317 312 308 306 305 306 305 306 306 307 321 322 332 205 37 22 169 166 158 154 140 130 129 120 230 150 202 198 181 208 209 181 145 160 127 38 113 139 137 144 147 156
330 328 326 321 317 312 307 301 298 300 302 302 308 321 138 254 254 318 298 175 172 168 161 138 132 140 162 202 150 214 181 194 351 157 189 129 144 117 8 121 139 140 147 154 163
332 330 327 325 322 320 313 305 303 300 297 299 304 358 221 255 323 316 157 166 170 167 169 157 165 157 133 226 213 177 67 149 189 128 163 132 130 124 214 182 151 150 159 163 168
337 334 331 333 335 328 321 314 305 295 294 288 242 127 316 238 6 118 152 169 175 172 147 180 160 124 159 183 235 150 158 203 117 150 124 101 139 170 170 219 164 164 163 166 172
341 339 340 346 354 355 341 337 331 309 277 261 138 153 246 258 353 159 155 145 179 158 134 197 128 116 180 279 114 150 106 162 99 117 144 164 147 147 160 193 175 167 169 172 172
351 345 349 344 345 2 360 4 22 29 156 155 130 126 272 286 206 177 171 148 153 195 240 171 151 111 32 77 40 13 197 174 100 131 163 147 112 158 174 185 175 170 177 175 152
357 351 346 342 336 346 5 39 91 77 94 150 277 351 269 48 165 180 187 138 134 131 85 116 71 89 46 88 183 176 173 159 145 106 263 111 142 160 165 185 177 174 177 164 165
353 353 347 344 329 335 4 126 26 27 197 209 206 265 276 326 212 147 161 137 100 93 136 207 104 192 184 174 155 138 104 94 63 61 52 332 160 173 163 170 169 180 172 158 179
348 352 350 342 330 325 129 157 190 69 310 229 249 270 270 250 305 94 149 122 130 145 130 61 218 205 176 151 130 177 113 86 76 115 68 339 212 167 166 169 178 185 183 172 179
345 344 343 338 327 328 280 263 158 328 161 297 190 201 203 158 176 180 135 146 132 134 166 147 211 154 153 149 133 179 138 179 135 127 61 82 132 177 239 160 191 209 222 179 172
340 336 330 336 326 313 274 233 318 195 58 304 311 289 141 190 127 164 168 154 133 157 148 168 209 138 161 156 149 168 193 152 136 138 183 199 172 214 198 192 201 189 210 192 175
336 330 323 324 294 232 174 330 64 123 57 323 325 10 153 144 147 192 170 80 159 142 102 231 154 159 154 193 171 201 144 140 149 112 110 202 163 192 161 203 198 213 224 184 183
332 327 317 317 251 260 291 333 135 36 33 343 345 352 116 0 59 110 104 52 133 106 37 213 221 145 197 179 179 165 90 57 61 68 315 207 167 214 190 208 200 203 215 193 183
332 322 306 252 242 297 336 59 40 84 331 327 343 7 342 359 65 64 142 81 125 90 349 317 243 223 150 141 170 184 116 76 67 64 225 227 135 242 256 212 197 192 198 182 183
333 323 293 245 118 287 333 55 70 271 288 317 347 332 86 358 26 12 78 95 44 84 123 161 285 173 185 171 186 193 170 151 154 182 227 123 222 261 253 246 191 183 179 156 167
338 338 317 339 216 219 71 53 193 207 296 339 337 43 5 360 107 67 41 119 85 106 167 136 278 297 205 163 141 201 183 176 105 48 92 239 292 302 356 77 122 127 133 168 176
344 2 3 36 122 101 68 220 230 203 265 16 40 29 20 342 64 70 30 340 122 152 135 202 286 253 292 130 75 161 163 89 2 128 163 278 277 220 188 115 116 118 119 107 122
4 58 349 150 7 50 122 223 281 254 213 328 50 43 24 358 42 93 200 120 107 295 157 133 115 290 314 174 181 132 140 47 110 109 149 157 257 205 182 138 128 118 115 112 92
39 56 20 96 48 29 119 199 256 324 132 296 95 103 86 22 58 72 165 198 106 245 108 222 140 233 242 260 238 246 185 150 128 215 84 138 240 67 129 129 124 119 131 133 111
80 183 190 291 96 347 294 278 341 0 19 4 349 54 99 103 28 165 233 245 293 290 153 194 46 10 348 354 11 53 340 118 112 98 184 139 224 149 148 152 150 149 143 131 125
88 51 336 54 127 128 232 8 104 22 70 330 339 62 67 39 10 6 345 355 344 348 91 98 103 174 184 212 205 329 341 141 109 119 162 201 154 175 178 166 148 138 124 110 118
28 238 205 350 358 75 89 8 60 4 355 27 28 21 136 44 22 17 359 331 351 5 51 87 127 191 238 286 138 49 7 316 204 174 149 187 184 189 178 162 143 132 131 128 118
87 96 11 59 288 71 19 0 73 2 29 343 61 3 321 110 146 357 7 27 325 342 63 17 150 100 293 241 75 44 14 5 53 91 63 132 72 131 132 135 139 140 136 130 123
15 38 98 313 32 74 246 157 116 96 40 57 314 32 30 347 330 290 253 257 241 309 69 65 76 47 240 327 54 23 352 323 289 159 143 157 196 146 144 155 154 138 130 129 126